Main page
METAR-TAF:

METAR-TAF

Airports :

Juazeiro do Norte Airport

Juazeiro do Norte, Ceará, Brazil

latitude: 07-13-06S, longitude: 039-16-18W, elevation: 424 m

Current weather observation

The report was made 27 minutes ago, at 01:00 UTC
Calm wind
Temperature 30°C
Humidity 40%
Pressure 1015 hPa
Visibility 10 km or more
no clouds below 1500 m and no cumulonimbus

METAR: SBJU 170100Z 00000KT CAVOK 30/15 Q1015

Time: 22:27 (01:27 UTC)


TAF: missing

Weather observations and forecasts of more than 4000 airports (METAR and TAF reports).

The available stations are represented by yellow and red dots on the map.

Hover mouse over dot to see the name of the station.

Then click to see weather observations and forecasts.

To change the map : click on the green buttons with a black cross to zoom in, on the green button with a dash to zoom out, or on the green arrows for adjacent maps.


METAR-TAF: